Total_Precipitation_Accumulation
0.00 0.00 0.00 0.00 0.00 0.00 0.00 0.00 0.00 0.00 0.00 0.00 0.00 0.00 0.00 0.00 0.00 0.00 0.00 0.00 0.00 0.00 0.01 0.00 0.01 0.01 0.00 0.02 0.00 0.00 0.01 0.02 0.01 0.05 0.05 0.07 0.01 0.04 0.02 0.04 0.06 0.08 0.09
0.00 0.00 0.00 0.00 0.00 0.00 0.00 0.00 0.00 0.00 0.00 0.00 0.00 0.00 0.00 0.00 0.00 0.00 0.00 0.00 0.00 0.00 0.00 0.00 0.00 0.00 0.00 0.01 0.00 0.00 0.00 0.00 0.00 0.04 0.07 0.08 0.04 0.03 0.01 0.05 0.17 0.15 0.07
0.00 0.00 0.00 0.00 0.00 0.00 0.00 0.00 0.00 0.00 0.00 0.00 0.00 0.00 0.00 0.00 0.00 0.00 0.00 0.00 0.00 0.00 0.00 0.00 0.00 0.00 0.00 0.00 0.00 0.00 0.00 0.00 0.01 0.05 0.09 0.09 0.09 0.13 0.12 0.15 0.23 0.31 0.08
0.00 0.00 0.00 0.00 0.00 0.00 0.00 0.00 0.00 0.00 0.00 0.00 0.00 0.00 0.00 0.00 0.00 0.00 0.00 0.00 0.00 0.00 0.00 0.00 0.00 0.00 0.00 0.00 0.00 0.00 0.00 0.00 0.01 0.06 0.14 0.11 0.20 0.42 0.41 0.40 0.26 0.25 0.17
0.00 0.00 0.00 0.00 0.00 0.00 0.00 0.00 0.00 0.00 0.00 0.00 0.00 0.00 0.00 0.00 0.00 0.00 0.00 0.00 0.01 0.00 0.01 0.00 0.00 0.00 0.00 0.00 0.00 0.00 0.00 0.00 0.00 0.06 0.39 0.60 0.49 0.49 0.55 0.55 0.31 0.22 0.35
0.00 0.00 0.00 0.00 0.00 0.00 0.00 0.00 0.00 0.00 0.00 0.00 0.00 0.00 0.00 0.00 0.00 0.00 0.00 0.00 0.01 0.00 0.00 0.00 0.01 0.00 0.00 0.00 0.00 0.00 0.00 0.00 0.00 0.10 0.37 0.28 0.67 0.62 0.37 0.27 0.25 0.23 0.21
0.00 0.00 0.00 0.00 0.00 0.00 0.00 0.00 0.00 0.00 0.00 0.00 0.00 0.00 0.00 0.00 0.00 0.00 0.00 0.00 0.01 0.01 0.01 0.00 0.01 0.01 0.00 0.00 0.00 0.00 0.00 0.00 0.00 0.16 0.46 1.28 0.49 0.51 0.27 0.29 0.23 0.19 0.24
0.00 0.00 0.00 0.00 0.00 0.00 0.00 0.00 0.00 0.00 0.00 0.00 0.00 0.00 0.00 0.00 0.01 0.00 0.00 0.00 0.02 0.01 0.02 0.01 0.03 0.02 0.00 0.00 0.00 0.00 0.00 0.01 0.04 0.17 0.52 0.69 0.32 0.21 0.20 0.27 0.15 0.15 0.18
0.00 0.00 0.00 0.00 0.00 0.00 0.00 0.00 0.00 0.00 0.00 0.00 0.00 0.00 0.00 0.03 0.06 0.05 0.01 0.00 0.05 0.06 0.03 0.03 0.03 0.00 0.00 0.00 0.00 0.00 0.00 0.01 0.06 0.08 0.49 0.71 0.45 0.27 0.15 0.20 0.12 0.19 0.23
0.00 0.00 0.00 0.00 0.00 0.00 0.00 0.00 0.00 0.00 0.00 0.00 0.00 0.00 0.00 0.00 0.00 0.01 0.03 0.03 0.11 0.10 0.08 0.03 0.03 0.00 0.00 0.00 0.00 0.00 0.00 0.00 0.01 0.04 0.24 0.28 0.35 0.24 0.20 0.18 0.14 0.15 0.20
0.00 0.00 0.00 0.00 0.00 0.00 0.00 0.01 0.00 0.00 0.00 0.00 0.00 0.00 0.00 0.00 0.00 0.00 0.00 0.00 0.04 0.07 0.12 0.08 0.05 0.02 0.00 0.00 0.00 0.00 0.00 0.00 0.00 0.03 0.09 0.20 0.28 0.23 0.24 0.21 0.17 0.15 0.31
0.00 0.00 0.00 0.01 0.01 0.00 0.00 0.00 0.00 0.00 0.00 0.00 0.00 0.00 0.00 0.00 0.00 0.00 0.00 0.00 0.02 0.13 0.18 0.13 0.09 0.03 0.00 0.00 0.00 0.00 0.00 0.00 0.00 0.07 0.13 0.10 0.22 0.15 0.13 0.23 0.31 0.44 0.55
0.00 0.00 0.00 0.01 0.02 0.01 0.00 0.00 0.02 0.03 0.00 0.02 0.01 0.04 0.09 0.11 0.07 0.04 0.06 0.08 0.02 0.05 0.05 0.09 0.09 0.04 0.01 0.00 0.02 0.02 0.00 0.00 0.02 0.13 0.30 0.39 0.11 0.08 0.09 0.18 0.24 0.29 0.47
0.00 0.02 0.13 0.07 0.02 0.07 0.03 0.05 0.10 0.07 0.03 0.04 0.12 0.14 0.16 0.18 0.15 0.15 0.12 0.24 0.18 0.16 0.09 0.13 0.10 0.07 0.05 0.02 0.04 0.06 0.03 0.01 0.03 0.13 0.18 0.32 0.06 0.04 0.09 0.14 0.19 0.27 0.42
0.00 0.03 0.26 0.27 0.22 0.21 0.17 0.18 0.20 0.19 0.10 0.08 0.21 0.21 0.20 0.23 0.33 0.28 0.19 0.19 0.15 0.23 0.21 0.21 0.18 0.17 0.12 0.11 0.07 0.05 0.05 0.05 0.03 0.14 0.09 0.21 0.01 0.00 0.05 0.11 0.29 0.54 1.14
0.00 0.01 0.02 0.10 0.35 0.41 0.62 0.75 0.61 0.63 0.49 0.25 0.11 0.13 0.18 0.12 0.18 0.22 0.26 0.36 0.39 0.61 0.42 0.33 0.30 0.21 0.17 0.23 0.10 0.08 0.09 0.10 0.06 0.11 0.08 0.13 0.06 0.00 0.01 0.19 0.46 0.42 1.07
0.00 0.00 0.00 0.00 0.03 0.22 0.60 0.82 0.77 0.83 0.92 0.93 0.67 0.41 0.16 0.17 0.29 0.41 0.55 0.57 0.71 0.63 0.53 0.51 0.57 0.52 0.21 0.19 0.11 0.11 0.09 0.07 0.06 0.09 0.13 0.07 0.12 0.01 0.00 0.03 0.17 0.18 0.31
0.00 0.00 0.00 0.00 0.00 0.00 0.02 0.11 0.20 0.38 0.62 0.80 0.82 0.80 0.81 0.75 0.73 0.77 0.82 0.73 0.80 0.72 0.70 0.86 1.12 1.13 0.49 0.36 0.18 0.11 0.07 0.07 0.05 0.07 0.09 0.07 0.02 0.02 0.01 0.00 0.03 0.08 0.16
0.00 0.00 0.00 0.00 0.00 0.00 0.00 0.01 0.04 0.10 0.13 0.22 0.42 0.57 0.91 1.09 0.87 0.72 0.66 0.59 0.52 0.65 0.89 1.00 0.78 0.56 0.40 0.32 0.30 0.27 0.13 0.10 0.08 0.08 0.05 0.10 0.03 0.02 0.00 0.00 0.00 0.02 0.07
0.00 0.00 0.00 0.00 0.00 0.00 0.00 0.00 0.00 0.00 0.01 0.03 0.11 0.36 0.39 0.72 0.95 0.76 0.67 0.65 0.66 0.50 0.37 0.32 0.33 0.50 0.58 0.73 0.75 0.57 0.39 0.26 0.23 0.14 0.08 0.12 0.05 0.04 0.02 0.02 0.02 0.01 0.01
0.00 0.00 0.00 0.00 0.00 0.00 0.00 0.00 0.00 0.00 0.00 0.00 0.02 0.09 0.13 0.27 0.45 0.67 0.89 0.92 0.92 0.81 0.63 0.61 0.59 0.54 0.56 0.64 0.75 0.62 0.58 0.58 0.49 0.30 0.23 0.23 0.13 0.09 0.09 0.06 0.05 0.02 0.00
0.00 0.00 0.00 0.00 0.00 0.00 0.00 0.00 0.00 0.00 0.00 0.00 0.00 0.03 0.06 0.07 0.25 0.49 0.51 0.61 0.83 1.32 1.07 0.72 0.84 0.73 0.66 0.60 0.71 0.81 0.60 0.48 0.49 0.73 0.69 0.36 0.25 0.23 0.13 0.10 0.08 0.03 0.01
0.00 0.00 0.00 0.00 0.00 0.00 0.00 0.00 0.00 0.00 0.00 0.00 0.00 0.00 0.00 0.01 0.07 0.32 0.28 0.47 0.74 0.89 0.97 1.13 1.10 1.07 1.08 1.07 1.18 1.23 1.13 0.72 0.55 0.56 0.57 0.44 0.25 0.21 0.15 0.11 0.06 0.02 0.01
0.00 0.00 0.00 0.00 0.00 0.00 0.00 0.00 0.00 0.00 0.00 0.00 0.00 0.00 0.00 0.00 0.01 0.11 0.20 0.16 0.28 0.43 0.56 0.66 0.78 0.88 1.25 1.32 1.48 1.56 1.49 1.41 1.38 0.97 0.59 0.47 0.40 0.24 0.12 0.11 0.08 0.05 0.01
0.00 0.00 0.00 0.00 0.00 0.00 0.00 0.00 0.00 0.00 0.00 0.00 0.00 0.00 0.00 0.00 0.00 0.01 0.09 0.14 0.10 0.15 0.24 0.31 0.25 0.29 0.40 0.55 0.76 0.93 1.05 0.96 0.97 0.85 0.44 0.23 0.23 0.12 0.06 0.06 0.06 0.05 0.04
0.00 0.00 0.00 0.00 0.00 0.00 0.00 0.00 0.00 0.00 0.00 0.00 0.00 0.00 0.00 0.00 0.00 0.03 0.11 0.16 0.12 0.05 0.13 0.14 0.13 0.18 0.18 0.25 0.32 0.31 0.31 0.35 0.30 0.35 0.30 0.14 0.11 0.04 0.04 0.04 0.05 0.03 0.03